Terug naar catalogus

FENGYUN 1C DEB

ActiefSSO
NORAD 41831·DEBRIS·🇨🇳 China

Gelanceerd May 10, 1999 vanaf Taiyuan Satellite Launch Center

Loading…

Volgende Passages (komende 24 uur)

TLE

VersSource: Space-Track

Epoch: Sep 14, 2026, 22:14 UTC

1 41831U 99025EYJ 26257.92647171  .00002011  00000-0  84359-3 0  9997
2 41831  98.7167 328.3450 0056087 139.6767 220.8593 14.26197535511949

Volg FENGYUN 1C DEB in realtime met AllMySat

Download on the App Store